This is the latest recevied weather packets stored in our database for station/object WD7CGF. If no packets are shown the sender has not sent any weather packets the latest 10 day(s).
| Time | Temp. | Humidity | Pressure | Rain* | Wind** | Luminosity | Snow |
|---|---|---|---|---|---|---|---|
| 1787530123 | 22.78° C | 51% | 1016.9 hPa | 0 mm | - | - | - |
| 1787529517 | 22.78° C | 51% | 1016.8 hPa | 0 mm | - | - | - |
| 1787528911 | 22.78° C | 50% | 1016.8 hPa | 0 mm | - | - | - |
| 1787528327 | 23.33° C | 50% | 1016.7 hPa | 0 mm | - | - | - |
| 1787527720 | 23.33° C | 50% | 1016.8 hPa | 0 mm | - | - | - |
| 1787527114 | 23.33° C | 51% | 1016.8 hPa | 0 mm | - | - | - |
| 1787526510 | 23.33° C | 50% | 1016.6 hPa | 0 mm | - | - | - |
| 1787525927 | 23.89° C | 50% | 1016.5 hPa | 0 mm | - | - | - |
| 1787525323 | 23.89° C | 49% | 1016.5 hPa | 0 mm | - | - | - |
| 1787524717 | 23.89° C | 49% | 1016.5 hPa | 0 mm | - | - | - |
| 1787524130 | 23.89° C | 49% | 1016.4 hPa | 0 mm | - | - | - |
| 1787523523 | 23.89° C | 50% | 1016.4 hPa | 0 mm | - | - | - |
| 1787522918 | 23.89° C | 49% | 1016.3 hPa | 0 mm | - | - | - |
| 1787522315 | 23.89° C | 50% | 1016.5 hPa | 0 mm | - | - | - |
| 1787521713 | 23.89° C | 48% | 1016.5 hPa | 0 mm | - | - | - |
| 1787521125 | 23.89° C | 48% | 1016.5 hPa | 0 mm | - | - | - |
| 1787520518 | 23.89° C | 49% | 1016.8 hPa | 0 mm | - | - | - |
| 1787519911 | 24.44° C | 51% | 1016.8 hPa | 0 mm | - | - | - |
| 1787519329 | 23.89° C | 47% | 1016.7 hPa | 0 mm | - | - | - |
| 1787518722 | 23.89° C | 48% | 1016.7 hPa | 0 mm | - | - | - |
| 1787518117 | 23.89° C | 49% | 1016.7 hPa | 0 mm | - | - | - |
| 1787517514 | 23.89° C | 49% | 1016.5 hPa | 0 mm | - | - | - |
| 1787516927 | 23.89° C | 50% | 1016.5 hPa | 0 mm | - | - | - |
| 1787516322 | 23.89° C | 51% | 1016.5 hPa | 0 mm | - | - | - |
| 1787515719 | 23.89° C | 50% | 1016.7 hPa | 0 mm | - | - | - |
* Rain latest hour (hover to see other rain measurements)
** Current wind speed in m/s (hover to see current wind gust speed)